Location: Bussy-Saint-Georges
(48.8410°N, 2.7017°E)
Time: 03:39:50
(UTC+00:00)

Okean 1 Rocket - Pass Details

Date: 18 October 2021
Orbit: 607 x 633 km, 82.5° (Epoch: 30 November)

Event Time Altitude Azimuth Distance (km) Brightness Sun altitude
Rises 17:31:00 0° 184° (S) 2,853 6.6 -6.9°
Reaches altitude 10° 17:33:12 10° 182° (S) 1,955 5.8 -7.3°
Maximum altitude 17:37:30 76° 98° (E) 633 3.0 -8.0°
Drops below altitude 10° 17:41:53 10° 13° (NNE) 1,978 5.5 -8.7°
Sets 17:44:07 0° 12° (NNE) 2,890 6.3 -9.0°
